Regional Weather Roundup
Issued by NWS

Home | Current Version | Previous Version | Graphics & Text | Print | Product List | Glossary On
Versions: 1 2 3 4 5 6 7 8 9 10 11 12 13 14 15 16 17 18 19 20 21 22 23 24 25 26 27 28 29 30 31 32 33 34 35 36 37 38 39 40 41 42 43 44 45 46 47 48 49 50
000
ASUS45 KCYS 182210
RWRWY

WYOMING REGIONAL WEATHER ROUNDUP
NATIONAL WEATHER SERVICE CHEYENNE WY
300 PM MST THU DEC 18 2014

NOTE:  "FAIR" INDICATES FEW OR NO CLOUDS BELOW 12,000 FEET
WITH NO SIGNIFICANT WEATHER AND/OR OBSTRUCTIONS TO VISIBILITY.

WYZ001-182300-
YELLOWSTONE NATIONAL PARK

CITY           SKY/WX    TMP DP  RH WIND       PRES   REMARKS
LK YELLOWSTONE   N/A     24  18  77 W7        30.04F WCI  16
W YELLOWSTONE  NOT AVBL

$$
WYZ002>013-054>058-071-098>099-182300-
NORTHERN WYOMING

CITY           SKY/WX    TMP DP  RH WIND       PRES   REMARKS
JACKSON        LGT SNOW  27  25  93 CALM      30.07S
CODY           FAIR      27  16  63 CALM      29.97S
GREYBULL       FAIR      26  18  71 E10       30.04F WCI  16
WORLAND        FAIR      21  14  74 CALM      30.04R
SHERIDAN       FAIR      41  23  48 CALM      29.95R
BUFFALO        FAIR      39  14  36 S12       29.97R WCI  32
GILLETTE       FAIR      37  21  52 SW10      29.96S WCI  30
HULETT           N/A     37  28  70 MISG        N/A
NEWCASTLE      FAIR      37  27  65 CALM      30.00S

$$
WYZ014>020-022>026-101>103-182300-
CENTRAL WYOMING

CITY           SKY/WX    TMP DP  RH WIND       PRES   REMARKS
BIG PINEY      CLOUDY    32  15  49 N6        30.06S WCI  26
PINEDALE       FAIR      30  18  59 W10       30.06S WCI  21
DUBOIS         FAIR      30  12  47 W22       29.99R WCI  17
LANDER         FAIR      12   7  80 CALM      30.03S
RIVERTON       CLOUDY    14  11  87 S3        30.04F
CASPER         FAIR      27  18  69 SW21      30.02S WCI  13
DOUGLAS        FAIR      35  20  54 W3        30.02R

$$
WYZ021-027>030-104>119-182300-
SOUTHERN WYOMING

CITY           SKY/WX    TMP DP  RH WIND       PRES   REMARKS
EVANSTON       PTSUNNY   32  20  61 W13       30.08S WCI  22
KEMMERER       CLOUDY    32  21  64 W10       30.07S WCI  24
FORT BRIDGER   CLOUDY    34  22  61 NW10      30.11S WCI  26
ROCK SPRINGS   CLOUDY    31  18  58 W14       30.07S WCI  21
DIXON          CLOUDY    28  23  82 CALM      30.13S
RAWLINS        FAIR      27  20  75 W9        30.06S WCI  18
SARATOGA       FAIR      30  21  69 W7        30.08R WCI  23
LARAMIE        FAIR      29  19  66 NE7       30.00S WCI  22
CHEYENNE       FAIR      39  14  36 W10       30.00R WCI  32
TORRINGTON     FAIR      32  25  75 CALM      30.01R
PINE BLUFFS    FAIR      37  23  56 NW16      30.02R WCI  28

$$


USA.gov is the U.S. government's official web portal to all federal, state and local government web resources and services.